Weather in Jaunjelgava

Latvia     56°36′41″N   25°04′23″E
temp.,
°C
wind,
m/s
gust,
m/s
humid.,
%
clouds,
%
prec.,
mm/h
press.,
hPa
HPBL,
m
18 april, sun
sun1800:00+10ne3980100 0.0 1023221
03:00+8ne388747 0.0 1023162
06:00+7ne389253 0.0 1023181
09:00+11ene496871 0.0 1023442
12:00+15ene574478 0.0 10231003
15:00+17ene463820 0.0 10231599
18:00+16ene46404 0.0 10221833
21:00+10ene310600 0.0 1024205
19 april, mon
mon1900:00+7ne310650 0.0 1025219
03:00+6ne39724 0.0 1025179
06:00+4ene39815 0.0 1025204
09:00+9e486595 0.0 1025375
12:00+13e454921 0.0 10251275
15:00+14e454092 0.0 10242214
18:00+13e4650100 0.0 10231070
21:00+10e2766100 0.0 1024251
20 april, tue
tue2000:00+9ene277387 0.0 1023294
03:00+8ene2676100 0.0 1022229
06:00+5ne259121 0.1 1021130
09:00+8e367018 0.1 1020584
12:00+9e4558100 0.1 10191088
15:00+11ese143982 0.1 10171936
18:00+11e344298 0.0 10151780
21:00+7e256885 0.1 1015127
21 april, wed
wed2100:00+5ese117832 0.0 101317
03:00+3nne118110 0.0 101210
06:00+2nnw11845 0.0 101010
09:00+7nnw22625 0.0 1009412
12:00+11nw354282 0.0 10071906
15:00+12nw563791 0.0 10062094
18:00+12nw354297 0.0 10061863
21:00+6n116431 0.0 100710
22 april, thu
thu2200:00+6wnw016261 0.0 100810
03:00+4ssw227655 0.0 100924
06:00+3ssw239237 0.0 101058
09:00+8s2468100 0.0 1011406
12:00+11ssw4760100 0.0 10111431
15:00+7sw3691100 1.8 1013449
18:00+7w2586100 0.3 1014356
21:00+5sw118811 0.4 101510